Beckley, WV

8:24 AM EDT on July 25, 2017 (GMT -0400)
Raleigh County Memorial

Weather History for KBKW - April, 2013

Change the Weather History Date:

Tuesday, April 9, 2013

  Actual Average Record
Temperature  
Mean Temperature 67 °F 50 °F  
Max Temperature 79 °F 61 °F 80 °F (2001)
Min Temperature 55 °F 40 °F 15 °F (1972)
Degree Days  
Heating Degree Days 0 15  
Month to date heating degree days 161 147  
Since 1 July heating degree days 4889 4860  
Cooling Degree Days 2 0  
Month to date cooling degree days 2 0  
Year to date cooling degree days 2 1  
Growing Degree Days 16 (Base 50)    
Moisture  
Dew Point 45 °F    
Average Humidity 52    
Maximum Humidity 72    
Minimum Humidity 31    
Precipitation  
Precipitation 0.00 in 0.11 in 1.04 in (1916)
Month to date precipitation 0.91 0.96  
Year to date precipitation 9.25 10.10  
Snow  
Snow 0.00 in - - ()
Month to date snowfall 0.0  
Since 1 September snowfall 72.0  
Snow Depth 0.00 in    
Sea Level Pressure  
Sea Level Pressure 30.07 in    
Wind  
Wind Speed 7 mph (SW)    
Max Wind Speed 17 mph    
Max Gust Speed 25 mph    
Visibility 10 miles    
Events      
T = Trace of Precipitation, MM = Missing Value Source: NWS Daily Summary

Daily Weather History Graph

Daily Weather History Graph

Search for Another Location

Airport or City:

Trip Planner

Search our weather history database for the weather conditions in past years. The results will help you decide how hot, cold, wet, or windy it might be!

Date:

Astronomy

Apr. 09, 2013 Rise Set
Actual Time 6:57 AM EDT 7:54 PM EDT
Civil Twilight 6:30 AM EDT 8:21 PM EDT
Nautical Twilight 5:59 AM EDT 8:53 PM EDT
Astronomical Twilight 5:26 AM EDT 9:26 PM EDT
Moon 6:18 AM EDT (4/9) 7:29 PM EDT (4/9)
Length of Visible Light 13h 50m
Length of Day
12h 57m
Waning Crescent, 1% of the Moon is Illuminated
Apr 9
Waning Crescent
Apr 10
New
Apr 18
First Quarter
Apr 25
Full
May 2
Last Quarter

Hourly Weather History & Observations

Time (EDT) Temp. Dew Point Humidity Pressure Visibility Wind Dir Wind Speed Gust Speed Precip Events Conditions
12:51 AM 57.2 °F 44.6 °F 63% 30.12 in 10.0 mi SSW 4.6 mph - N/A   Clear
1:51 AM 57.9 °F 44.1 °F 60% 30.06 in 10.0 mi SSW 4.6 mph - N/A   Clear
2:51 AM 57.0 °F 44.1 °F 62% 30.06 in 10.0 mi SW 4.6 mph - N/A   Clear
3:51 AM 57.9 °F 45.0 °F 62% 30.05 in 10.0 mi SW 6.9 mph - N/A   Clear
4:51 AM 57.9 °F 45.0 °F 62% 30.06 in 10.0 mi SW 5.8 mph - N/A   Partly Cloudy
5:51 AM 57.0 °F 45.0 °F 64% 30.09 in 10.0 mi SW 4.6 mph - N/A   Mostly Cloudy
6:51 AM 57.0 °F 45.0 °F 64% 30.11 in 10.0 mi Calm Calm - N/A   Overcast
7:51 AM 55.0 °F 46.0 °F 72% 30.13 in 10.0 mi Calm Calm - N/A   Mostly Cloudy
8:51 AM 63.0 °F 48.0 °F 58% 30.13 in 10.0 mi SW 4.6 mph - N/A   Scattered Clouds
9:51 AM 66.9 °F 48.0 °F 51% 30.13 in 10.0 mi WSW 6.9 mph - N/A   Clear
10:51 AM 70.0 °F 48.9 °F 47% 30.13 in 10.0 mi WSW 10.4 mph - N/A   Clear
11:51 AM 72.0 °F 48.9 °F 44% 30.13 in 10.0 mi WSW 9.2 mph - N/A   Partly Cloudy
12:51 PM 73.9 °F 48.9 °F 41% 30.10 in 10.0 mi WSW 9.2 mph 16.1 mph N/A   Scattered Clouds
1:51 PM 77.0 °F 48.9 °F 37% 30.07 in 10.0 mi SW 11.5 mph 19.6 mph 0.73 in   Partly Cloudy
2:51 PM 75.9 °F 48.0 °F 37% 30.04 in 10.0 mi SW 11.5 mph 19.6 mph N/A   Clear
3:51 PM 78.1 °F 46.9 °F 33% 30.02 in 10.0 mi Variable 4.6 mph 18.4 mph N/A   Clear
4:51 PM 75.9 °F 44.1 °F 32% 30.01 in 10.0 mi SSW 12.7 mph 20.7 mph N/A   Clear
5:51 PM 75.9 °F 44.1 °F 32% 30.00 in 10.0 mi SSW 9.2 mph - N/A   Clear
6:51 PM 75.9 °F 42.1 °F 30% 30.01 in 10.0 mi SW 6.9 mph - N/A   Clear
7:51 PM 73.9 °F 41.0 °F 30% 30.03 in 10.0 mi WSW 10.4 mph 18.4 mph N/A   Clear
8:51 PM 69.1 °F 42.1 °F 38% 30.03 in 10.0 mi SW 6.9 mph - N/A   Clear
9:51 PM 68.0 °F 39.9 °F 36% 30.03 in 10.0 mi SSW 6.9 mph - N/A   Clear
10:51 PM 61.0 °F 41.0 °F 48% 30.02 in 10.0 mi South 6.9 mph - N/A   Clear
11:51 PM 66.0 °F 43.0 °F 43% 30.00 in 10.0 mi South 4.6 mph - N/A   Clear